Tracking 20232 objects as of 18-Jan-2020
HD Live streaming from Space Station
objects crossing your sky now

COSMOS 2251 DEB

Track COSMOS 2251 DEB now!
10-day predictions


NORAD ID: 35643
Int'l Code: 1993-036ANJ
Perigee: 663.7 km
Apogee: 734.5 km
Inclination: 74.0 °
Period: 98.6 minutes
Semi major axis: 7070 km
RCS: 0.0012 m2 (small)
Launch date: June 16, 1993
Source: Commonwealth of Independent States (former USSR) (CIS)
Launch site: PLESETSK MISSILE AND SPACE COMPLEX (PKMTR)

Note: This is SATELLITE DEBRIS
aabbcc
Your satellite tracking list
Your tracking list is empty




NASA's NSSDC Master Catalog

Two Line Element Set (TLE):
1 35643U 93036ANJ 20018.07121838 +.00000704 +00000-0 +14944-3 0  9999
2 35643 074.0112 056.2926 0050013 350.5129 009.5086 14.60376459565708
Source of the keplerian elements: AFSPC